Home > Weather > Metairie > Past weeks

Flag for U.S.A. Weather for the Past 2 Weeks in Metairie, Louisiana, U.S.A.

Now
49 °F

Clear.


Feels Like: 44 °F
Forecast: 46 / 55 °F
Wind: 12 mph from Southwest

Location: New Orleans International Airport

Current Time: Feb 7, 2016 at 10:30:35 PM

Latest Report: Feb 7, 2016 at 8:53 PM


Visibility: 10 mi

Pressure: 30.19 "Hg

Humidity: 50%

Dew point: 31 °F

Location of MetairieLocation

Historic Weather in Metairie — Graph

°F

Metairie Temperature Yesterday

Maximum temperature yesterday: 57 °F (at 1:53 PM)
Minimum temperature yesterday: 37 °F (at 4:53 AM)
Average temperature yesterday: 48 °F

High & Low Weather Summary for the Past Weeks

 TemperatureHumidityPressure
High78 °F (Feb 1, 1:53 PM)91% (Feb 1, 2:53 AM)30.53 "Hg (Feb 1, 2:53 AM)
Low34 °F (Jan 24, 5:53 AM)21% (Feb 5, 3:53 PM)29.78 "Hg (Feb 2, 2:53 PM)
Average56 °F63%30.12 "Hg
* Reported Jan 23 8:53 PM — Feb 7 8:53 PM, Metairie, Weather by CustomWeather, © 2016

Note: Actual official high and low records may vary slightly from our data, if they occured in-between our weather recording intervals... More about our weather records

Advertising

Metairie Weather History for the Previous 24 Hours

 ConditionsComfort  
Time TempWeatherWind HumidityBarometerVisibility
8:53 PM
Sun, Feb 7
49 °FClear.12 mph50%30.19 "Hg10 mi
7:53 PM51 °FClear.12 mph50%30.19 "Hg10 mi
6:53 PM53 °FClear.12 mph45%30.17 "Hg10 mi
5:53 PM54 °FClear.8 mph31%30.16 "Hg10 mi
4:53 PM58 °FSunny.6 mph25%30.16 "Hg10 mi
3:53 PM59 °FSunny.3 mph21%30.16 "Hg10 mi
2:53 PM58 °FPassing clouds.3 mph21%30.17 "Hg10 mi
1:53 PM60 °FPassing clouds.5 mph21%30.20 "Hg10 mi
12:53 PM58 °FPassing clouds.7 mph24%30.24 "Hg10 mi
11:53 AM57 °FPassing clouds.8 mph26%30.29 "Hg10 mi
10:53 AM56 °FPassing clouds.6 mph32%30.31 "Hg10 mi
9:53 AM54 °FPassing clouds.3 mph34%30.32 "Hg10 mi
8:53 AM52 °FSunny.5 mph49%30.32 "Hg10 mi
7:53 AM42 °FSunny.No wind73%30.31 "Hg10 mi
6:53 AM40 °FSunny.No wind77%30.30 "Hg10 mi
5:53 AM39 °FClear.No wind76%30.30 "Hg10 mi
4:53 AM40 °FClear.3 mph77%30.30 "Hg10 mi
3:53 AM41 °FClear.3 mph70%30.29 "Hg10 mi
2:53 AM41 °FClear.3 mph67%30.28 "Hg10 mi
1:53 AM41 °FClear.No wind70%30.28 "Hg10 mi
12:53 AM42 °FClear.No wind62%30.28 "Hg10 mi
11:53 PM
Sat, Feb 6
42 °FClear.5 mph60%30.29 "Hg10 mi
10:53 PM45 °FClear.No wind56%30.30 "Hg10 mi
Weather by CustomWeather, © 2016

See weather overviewHow to use our weather pages